No particular awareness of the weather is required.    There are no Weather-warnings


Meteo18 Weather Cam more information Meteo18 Weather Cam


Thunder radar more information blitzortung!


Rain radar more information rain snow radar


Visit our other weather sites:

Template documentation
and downloads

And another site



Weather Underground History page Text

Daily Summary for February 26, 2018 Units:  Metric    English   Both
« Previous Day
Next Day »
Daily Weekly Monthly Yearly Custom
  High: Low: Average:
Temperature: -17.8 °C -20.8 °C -19.7 °C
Dew Point: -17.8 °C -25.7 °C -24.8 °C
Humidity: Humidity % 39 % 49 %
Wind Speed: 0 km/h 2.3 km/h 28.3 km/h
Wind Gust: 0 km/h - -
Wind:- - ENE
Pressure: 0 hPa 34476.3 hPa -
Precipitation: 7.62 mm    
Historical Graphs
 
 
Tabular Data for February 26, 2018
Time Temperature Dew Point Pressure Wind Wind Speed Wind Gust Humidity Rainfall Rate (Hourly)
-17.8 °C -17.8 °C 0 hPa Calm     Humidity % 0 mm
00:01 -19.2 °C -24.2 °C 34520.3 hPa North 10.3 km/h 36.2 km/h 50 % 0 mm
00:07 -19.3 °C -24.3 °C 34520.3 hPa NNE 23 km/h 33.6 km/h 50 % 0 mm
00:13 -19.3 °C -24.3 °C 34520.3 hPa North 31.4 km/h 31.4 km/h 50 % 0 mm
00:19 -19.3 °C -24.3 °C 34520.3 hPa NNE 10.3 km/h 31.1 km/h 50 % 0 mm
00:25 -19.3 °C -24.3 °C 34533.8 hPa NNE 31.4 km/h 36.2 km/h 50 % 0 mm
00:31 -19.3 °C -24.6 °C 34533.8 hPa NNE 31.4 km/h 44.1 km/h 48 % 0 mm
00:37 -19.3 °C -24.6 °C 34533.8 hPa NE 15.6 km/h 44.1 km/h 48 % 0 mm
00:43 -19.3 °C -24.6 °C 34533.8 hPa NE 33.6 km/h 44.1 km/h 48 % 0 mm
00:49 -19.3 °C -24.4 °C 34533.8 hPa NE 41.7 km/h 46.7 km/h 49 % 0 mm
00:55 -19.4 °C -24.7 °C 34520.3 hPa NNE 28.5 km/h 41.4 km/h 48 % 0 mm
01:01 -19.4 °C -24.8 °C 34520.3 hPa NE 36.5 km/h 44.1 km/h 47 % 0 mm
01:07 -19.4 °C -24.7 °C 34520.3 hPa NNE 20.9 km/h 41.4 km/h 48 % 0 mm
01:13 -19.4 °C -24.8 °C 34533.8 hPa NE 33.6 km/h 49.2 km/h 47 % 0 mm
01:19 -19.4 °C -24.7 °C 34520.3 hPa NE 44.1 km/h 46.7 km/h 48 % 0 mm
01:25 -19.4 °C -24.8 °C 34533.8 hPa NE 49.2 km/h 49.2 km/h 47 % 0 mm
01:31 -19.5 °C -24.8 °C 34533.8 hPa NE 38.8 km/h 38.8 km/h 48 % 0 mm
01:37 -19.5 °C -24.8 °C 34520.3 hPa North 7.6 km/h 28.5 km/h 48 % 0 mm
01:43 -19.6 °C -24.8 °C 34520.3 hPa NE 20.9 km/h 46.7 km/h 48 % 0 mm
01:49 -19.6 °C -24.9 °C 34520.3 hPa North 23 km/h 41.4 km/h 47 % 0 mm
01:55 -19.6 °C -24.8 °C 34520.3 hPa NE 41.7 km/h 44.1 km/h 48 % 0 mm
02:01 -19.6 °C -24.8 °C 34520.3 hPa NNE 17.9 km/h 49.2 km/h 48 % 0 mm
02:08 -19.6 °C -24.8 °C 34520.3 hPa NE 12.7 km/h 41.4 km/h 48 % 0 mm
02:14 -19.7 °C -24.8 °C 34520.3 hPa NE 15.6 km/h 38.8 km/h 49 % 0 mm
02:19 -19.7 °C -24.8 °C 34520.3 hPa NNE 20.9 km/h 38.8 km/h 49 % 0 mm
02:26 -19.7 °C -24.7 °C 34520.3 hPa NNE 33.6 km/h 36.2 km/h 50 % 0 mm
02:32 -19.8 °C -24.6 °C 34520.3 hPa NNE 10.3 km/h 23.3 km/h 51 % 0 mm
02:38 -19.8 °C -24.7 °C 34520.3 hPa NNE 17.9 km/h 41.4 km/h 51 % 0 mm
02:44 -19.8 °C -24.8 °C 34520.3 hPa NE 7.6 km/h 23.3 km/h 50 % 0 mm
02:50 -19.9 °C -24.7 °C 34520.3 hPa North 15.6 km/h 36.2 km/h 51 % 0 mm
02:56 -19.9 °C -24.7 °C 34520.3 hPa NE 41.7 km/h 41.7 km/h 51 % 0 mm
03:02 -19.9 °C -24.7 °C 34520.3 hPa NNE 17.9 km/h 41.4 km/h 51 % 0 mm
03:08 -19.9 °C -24.8 °C 34510.1 hPa NNE 28.5 km/h 36.2 km/h 51 % 0 mm
03:14 -19.9 °C -24.9 °C 34510.1 hPa NE 23 km/h 38.8 km/h 50 % 0 mm
03:20 -19.9 °C -24.8 °C 34510.1 hPa NE 26.2 km/h 46.7 km/h 51 % 0 mm
03:26 -20.1 °C -24.7 °C 34510.1 hPa NNE 23 km/h 36.2 km/h 52 % 0 mm
03:32 -20.1 °C -24.7 °C 34520.3 hPa NNW 20.9 km/h 38.8 km/h 52 % 0 mm
03:38 -20.1 °C -24.8 °C 34520.3 hPa NNE 12.7 km/h 44.1 km/h 51 % 0 mm
03:44 -20.1 °C -24.7 °C 34510.1 hPa North 5.1 km/h 36.2 km/h 53 % 0 mm
03:50 -20.2 °C -24.7 °C 34520.3 hPa NNW 7.6 km/h 36.2 km/h 53 % 0 mm
03:56 -20.2 °C -24.7 °C 34520.3 hPa NW 5.1 km/h 33.6 km/h 53 % 0 mm
04:02 -20.2 °C -24.6 °C 34520.3 hPa NE 7.6 km/h 23.3 km/h 54 % 0 mm
04:08 -20.2 °C -24.7 °C 34520.3 hPa NE 10.3 km/h 44.1 km/h 53 % 0 mm
04:14 -20.2 °C -24.6 °C 34520.3 hPa NNE 26.2 km/h 41.4 km/h 54 % 0 mm
04:20 -20.3 °C -24.7 °C 34520.3 hPa NE 36.5 km/h 36.5 km/h 54 % 0 mm
04:26 -20.3 °C -24.6 °C 34520.3 hPa WNW 15.6 km/h 28.5 km/h 55 % 0 mm
04:32 -20.4 °C -24.5 °C 34520.3 hPa North 12.7 km/h 23.3 km/h 56 % 0 mm
04:38 -20.4 °C -24.7 °C 34520.3 hPa NNE 10.3 km/h 31.1 km/h 55 % 0 mm
04:44 -20.4 °C -24.7 °C 34520.3 hPa NNE 28.5 km/h 33.6 km/h 55 % 0 mm
04:50 -20.4 °C -24.7 °C 34520.3 hPa NNE 15.6 km/h 41.4 km/h 55 % 0 mm
04:56 -20.4 °C -24.7 °C 34520.3 hPa NE 33.6 km/h 38.8 km/h 55 % 0 mm
05:02 -20.4 °C -24.6 °C 34520.3 hPa NNE 26.2 km/h 33.6 km/h 56 % 0 mm
05:08 -20.4 °C -24.7 °C 34520.3 hPa NNW 12.7 km/h 38.8 km/h 55 % 0 mm
05:14 -20.4 °C -24.7 °C 34520.3 hPa North 38.8 km/h 41.4 km/h 55 % 0 mm
05:20 -20.5 °C -24.8 °C 34520.3 hPa NE 23 km/h 31.1 km/h 55 % 0 mm
05:26 -20.5 °C -24.8 °C 34520.3 hPa North 10.3 km/h 31.1 km/h 55 % 0 mm
05:32 -20.5 °C -24.6 °C 34520.3 hPa NE 15.6 km/h 38.8 km/h 56 % 0 mm
05:38 -20.4 °C -24.6 °C 34520.3 hPa NNE 10.3 km/h 33.6 km/h 56 % 0 mm
05:44 -20.4 °C -24.5 °C 34510.1 hPa NE 12.7 km/h 28.5 km/h 56 % 0 mm
05:50 -20.4 °C -24.5 °C 34510.1 hPa NE 23 km/h 36.2 km/h 56 % 0 mm
05:56 -20.4 °C -24.4 °C 34510.1 hPa NE 26.2 km/h 38.8 km/h 57 % 0 mm
06:02 -20.4 °C -24.4 °C 34510.1 hPa NNE 20.9 km/h 33.6 km/h 57 % 0 mm
06:08 -20.4 °C -24.4 °C 34510.1 hPa NW 20.9 km/h 31.1 km/h 57 % 0 mm
06:14 -20.4 °C -24.4 °C 34520.3 hPa NE 7.6 km/h 41.4 km/h 57 % 0 mm
06:20 -20.4 °C -24.4 °C 34520.3 hPa NNE 31.4 km/h 33.6 km/h 57 % 0 mm
06:26 -20.4 °C -24.4 °C 34520.3 hPa NNE 20.9 km/h 38.8 km/h 57 % 0 mm
06:32 -20.4 °C -24.4 °C 34510.1 hPa NE 26.2 km/h 31.1 km/h 57 % 0 mm
06:38 -20.5 °C -24.5 °C 34520.3 hPa NNE 36.5 km/h 51.8 km/h 57 % 0 mm
06:44 -20.5 °C -24.4 °C 34520.3 hPa North 10.3 km/h 41.4 km/h 58 % 0 mm
06:50 -20.5 °C -24.4 °C 34510.1 hPa North 17.9 km/h 41.4 km/h 58 % 0 mm
06:56 -20.6 °C -24.3 °C 34510.1 hPa NNE 7.6 km/h 36.2 km/h 59 % 0 mm
07:02 -20.6 °C -24.4 °C 34510.1 hPa North 15.6 km/h 23.3 km/h 59 % 0 mm
07:08 -20.6 °C -24.4 °C 34510.1 hPa NNE 12.7 km/h 20.8 km/h 59 % 0 mm
07:14 -20.7 °C -24.4 °C 34510.1 hPa NNE 2.3 km/h 31.1 km/h 59 % 0 mm
07:20 -20.6 °C -24.5 °C 34510.1 hPa NNW 17.9 km/h 33.6 km/h 58 % 0 mm
07:26 -20.6 °C -24.5 °C 34510.1 hPa NNE 31.4 km/h 36.2 km/h 58 % 0 mm
07:32 -20.6 °C -24.7 °C 34510.1 hPa NNE 31.4 km/h 49.2 km/h 56 % 0 mm
07:38 -20.5 °C -24.6 °C 34510.1 hPa North 20.9 km/h 44.1 km/h 56 % 0 mm
07:44 -20.6 °C -24.7 °C 34520.3 hPa NNE 33.6 km/h 44.1 km/h 56 % 0 mm
07:50 -20.5 °C -24.6 °C 34520.3 hPa North 28.5 km/h 46.7 km/h 56 % 0 mm
07:56 -20.5 °C -24.8 °C 34520.3 hPa NNE 36.5 km/h 49.2 km/h 55 % 0 mm
08:02 -20.5 °C -24.8 °C 34520.3 hPa NE 36.5 km/h 38.8 km/h 55 % 0 mm
08:08 -20.4 °C -24.8 °C 34520.3 hPa NNE 33.6 km/h 59.5 km/h 54 % 0 mm
08:14 -20.4 °C -24.8 °C 34520.3 hPa NNE 44.1 km/h 51.8 km/h 54 % 0 mm
08:20 -20.4 °C -24.8 °C 34520.3 hPa ENE 12.7 km/h 46.7 km/h 54 % 0 mm
08:26 -20.4 °C -24.8 °C 34520.3 hPa NE 26.2 km/h 44.1 km/h 54 % 0 mm
08:32 -20.4 °C -24.8 °C 34520.3 hPa NNE 62.1 km/h 62.1 km/h 54 % 0 mm
08:38 -20.4 °C -24.8 °C 34520.3 hPa NE 36.5 km/h 59.5 km/h 54 % 0 mm
08:44 -20.3 °C -24.6 °C 34520.3 hPa NE 15.6 km/h 38.8 km/h 55 % 0 mm
08:50 -20.3 °C -24.7 °C 34520.3 hPa NE 17.9 km/h 49.2 km/h 54 % 0 mm
08:56 -20.3 °C -24.6 °C 34520.3 hPa NE 23 km/h 44.1 km/h 55 % 0 mm
09:02 -20.2 °C -24.6 °C 34520.3 hPa NNE 49.2 km/h 51.8 km/h 54 % 0 mm
09:08 -20.2 °C -24.6 °C 34533.8 hPa NE 31.4 km/h 59.5 km/h 54 % 0 mm
09:14 -20.3 °C -24.8 °C 34520.3 hPa NE 44.1 km/h 64.7 km/h 53 % 0 mm
09:20 -20.2 °C -24.6 °C 34520.3 hPa NE 59.5 km/h 72.6 km/h 54 % 0 mm
09:26 -20.2 °C -24.6 °C 34520.3 hPa NE 31.4 km/h 57 km/h 54 % 0 mm
09:32 -20.2 °C -24.6 °C 34520.3 hPa NE 38.8 km/h 44.1 km/h 54 % 0 mm
09:38 -20.1 °C -24.7 °C 34520.3 hPa NE 51.5 km/h 67.3 km/h 53 % 0 mm
09:44 -20.2 °C -24.7 °C 34520.3 hPa NNE 38.8 km/h 54.4 km/h 53 % 0 mm
09:50 -20.1 °C -24.8 °C 34520.3 hPa NNE 41.7 km/h 59.5 km/h 52 % 0 mm
09:56 -20.1 °C -24.8 °C 34520.3 hPa NE 49.2 km/h 69.8 km/h 52 % 0 mm
10:02 -20.1 °C -24.7 °C 34520.3 hPa NE 28.5 km/h 54.4 km/h 52 % 0 mm
10:08 -20.1 °C -25 °C 34520.3 hPa NNE 36.5 km/h 72.6 km/h 50 % 0 mm
10:14 -20 °C -24.9 °C 34520.3 hPa East 31.4 km/h 64.7 km/h 50 % 0 mm
10:20 -19.9 °C -24.7 °C 34520.3 hPa East 10.3 km/h 49.2 km/h 51 % 0 mm
10:26 -19.9 °C -25 °C 34520.3 hPa NNE 33.6 km/h 69.8 km/h 49 % 0 mm
10:32 -19.8 °C -24.9 °C 34520.3 hPa NE 38.8 km/h 69.8 km/h 49 % 0 mm
10:38 -19.8 °C -24.8 °C 34520.3 hPa NNE 31.4 km/h 54.4 km/h 50 % 0 mm
10:44 -19.8 °C -25.1 °C 34520.3 hPa NE 49.2 km/h 62.1 km/h 48 % 0 mm
10:50 -19.8 °C -24.9 °C 34520.3 hPa NE 44.1 km/h 59.5 km/h 49 % 0 mm
10:56 -19.7 °C -24.9 °C 34520.3 hPa NE 36.5 km/h 51.8 km/h 48 % 0 mm
11:02 -19.6 °C -24.8 °C 34520.3 hPa NNE 20.9 km/h 62.1 km/h 48 % 0 mm
11:08 -19.6 °C -24.8 °C 34520.3 hPa ENE 46.3 km/h 49.2 km/h 48 % 0 mm
11:14 -19.6 °C -24.9 °C 34520.3 hPa NNE 41.7 km/h 59.5 km/h 47 % 0 mm
11:20 -19.6 °C -25.2 °C 34510.1 hPa North 31.4 km/h 51.8 km/h 46 % 0 mm
11:26 -19.6 °C -25.1 °C 34510.1 hPa NNW 31.4 km/h 51.8 km/h 46 % 0 mm
11:32 -19.6 °C -25.1 °C 34510.1 hPa NE 36.5 km/h 62.1 km/h 46 % 0 mm
11:38 -19.6 °C -25.3 °C 34510.1 hPa NE 41.7 km/h 69.8 km/h 45 % 0 mm
11:44 -19.3 °C -25.1 °C 34510.1 hPa NE 36.5 km/h 57 km/h 45 % 0 mm
11:50 -19.4 °C -24.9 °C 34510.1 hPa East 36.5 km/h 59.5 km/h 46 % 0 mm
11:56 -19.4 °C -25.3 °C 34520.3 hPa NE 49.2 km/h 72.6 km/h 44 % 0 mm
12:02 -19.3 °C -25.2 °C 34520.3 hPa NE 15.6 km/h 54.4 km/h 44 % 0 mm
12:08 -19.2 °C -25.3 °C 34510.1 hPa East 20.9 km/h 54.4 km/h 43 % 0 mm
12:14 -19.1 °C -25.2 °C 34510.1 hPa ENE 20.9 km/h 41.4 km/h 43 % 0 mm
12:20 -19.1 °C -25.4 °C 34510.1 hPa ENE 23 km/h 46.7 km/h 41 % 0 mm
12:26 -19.2 °C -25.7 °C 34510.1 hPa East 20.9 km/h 64.7 km/h 40 % 0 mm
12:32 -19.1 °C -25.5 °C 34520.3 hPa NNE 26.2 km/h 59.5 km/h 41 % 0 mm
12:38 -19.1 °C -25.3 °C 34510.1 hPa NNE 36.5 km/h 49.2 km/h 42 % 7.62 mm
12:44 -19.1 °C -25.4 °C 34510.1 hPa NNE 59.5 km/h 67.3 km/h 41 % 7.62 mm
12:50 -19.2 °C -25.7 °C 34510.1 hPa North 38.8 km/h 57 km/h 40 % 7.62 mm
13:02 -18.9 °C -25.2 °C 34510.1 hPa NW 33.6 km/h 54.4 km/h 42 % 7.62 mm
13:08 -18.9 °C -25.1 °C 34510.1 hPa NE 20.9 km/h 49.2 km/h 42 % 7.62 mm
13:14 -18.8 °C -25.2 °C 34510.1 hPa NE 38.8 km/h 67.3 km/h 41 % 7.62 mm
13:20 -19 °C -25.7 °C 34510.1 hPa NNE 38.8 km/h 72.6 km/h 39 % 7.62 mm
13:26 -19 °C -25.2 °C 34510.1 hPa NNE 44.1 km/h 69.8 km/h 42 % 7.62 mm
13:33 -18.9 °C -25.3 °C 34510.1 hPa NE 44.1 km/h 57 km/h 41 % 7.62 mm
13:39 -18.9 °C -25.3 °C 34510.1 hPa NNE 33.6 km/h 59.5 km/h 41 % 0 mm
13:45 -18.8 °C -25 °C 34510.1 hPa NE 67.3 km/h 67.3 km/h 42 % 0 mm
13:51 -18.9 °C -25.1 °C 34496.6 hPa NNE 36.5 km/h 64.7 km/h 42 % 0 mm
13:57 -18.7 °C -24.7 °C 34510.1 hPa NNE 12.7 km/h 46.7 km/h 44 % 0 mm
14:03 -18.7 °C -24.8 °C 34510.1 hPa East 10.3 km/h 49.2 km/h 43 % 0 mm
14:09 -18.7 °C -24.8 °C 34510.1 hPa NE 20.9 km/h 54.4 km/h 43 % 0 mm
14:15 -18.7 °C -24.8 °C 34510.1 hPa NE 56.6 km/h 62.1 km/h 43 % 0 mm
14:21 -18.8 °C -24.9 °C 34496.6 hPa NE 51.5 km/h 57 km/h 43 % 0 mm
14:27 -18.7 °C -24.5 °C 34510.1 hPa NE 38.8 km/h 51.8 km/h 45 % 0 mm
14:33 -18.7 °C -24.7 °C 34510.1 hPa NE 33.6 km/h 46.7 km/h 44 % 0 mm
14:39 -18.7 °C -24.8 °C 34496.6 hPa NNE 38.8 km/h 51.8 km/h 43 % 0 mm
14:45 -18.7 °C -24.7 °C 34496.6 hPa NE 20.9 km/h 41.4 km/h 44 % 0 mm
14:51 -18.7 °C -24.7 °C 34496.6 hPa ENE 59.5 km/h 59.5 km/h 44 % 0 mm
14:57 -18.7 °C -24.5 °C 34496.6 hPa NNE 46.3 km/h 46.7 km/h 45 % 0 mm
15:03 -18.7 °C -24.6 °C 34496.6 hPa East 26.2 km/h 49.2 km/h 44 % 0 mm
15:09 -18.7 °C -24.6 °C 34496.6 hPa NE 23 km/h 49.2 km/h 44 % 0 mm
15:15 -18.7 °C -24.6 °C 34496.6 hPa North 31.4 km/h 51.8 km/h 44 % 0 mm
15:21 -18.7 °C -24.9 °C 34496.6 hPa North 28.5 km/h 57 km/h 42 % 0 mm
15:27 -18.7 °C -24.9 °C 34496.6 hPa NE 20.9 km/h 54.4 km/h 42 % 0 mm
15:33 -18.7 °C -24.9 °C 34496.6 hPa NNE 41.7 km/h 54.4 km/h 42 % 0 mm
15:39 -18.8 °C -25.3 °C 34496.6 hPa NE 28.5 km/h 54.4 km/h 40 % 0 mm
15:45 -18.7 °C -24.9 °C 34486.4 hPa NE 41.7 km/h 44.1 km/h 42 % 0 mm
15:51 -18.7 °C -25.1 °C 34486.4 hPa NNE 49.2 km/h 62.1 km/h 41 % 0 mm
15:57 -18.6 °C -24.7 °C 34486.4 hPa NE 31.4 km/h 44.1 km/h 43 % 0 mm
16:03 -18.7 °C -24.9 °C 34486.4 hPa ENE 41.7 km/h 62.1 km/h 42 % 0 mm
16:09 -18.8 °C -25 °C 34486.4 hPa NNE 26.2 km/h 51.8 km/h 42 % 0 mm
16:15 -18.7 °C -24.6 °C 34486.4 hPa NNE 7.6 km/h 49.2 km/h 44 % 0 mm
16:21 -18.7 °C -24.8 °C 34476.3 hPa North 15.6 km/h 64.7 km/h 43 % 0 mm
16:27 -18.8 °C -25.2 °C 34486.4 hPa NNE 44.1 km/h 67.3 km/h 41 % 0 mm
16:33 -18.8 °C -25 °C 34486.4 hPa NNE 26.2 km/h 49.2 km/h 42 % 0 mm
16:39 -18.8 °C -24.8 °C 34486.4 hPa ENE 23 km/h 51.8 km/h 43 % 0 mm
16:45 -18.8 °C -24.9 °C 34486.4 hPa NNE 41.7 km/h 54.4 km/h 43 % 0 mm
16:51 -18.8 °C -24.9 °C 34486.4 hPa North 38.8 km/h 54.4 km/h 43 % 0 mm
16:57 -18.8 °C -24.9 °C 34476.3 hPa NNW 44.1 km/h 67.3 km/h 43 % 0 mm
17:03 -18.8 °C -24.9 °C 34486.4 hPa ENE 10.3 km/h 31.1 km/h 43 % 0 mm
17:09 -18.9 °C -25.1 °C 34486.4 hPa ENE 20.9 km/h 54.4 km/h 42 % 0 mm
17:15 -18.9 °C -25 °C 34476.3 hPa North 28.5 km/h 54.4 km/h 43 % 0 mm
17:21 -19 °C -25.1 °C 34486.4 hPa NE 12.7 km/h 51.8 km/h 43 % 0 mm
17:27 -19 °C -25.1 °C 34486.4 hPa NE 26.2 km/h 44.1 km/h 43 % 0 mm
17:33 -19 °C -25.1 °C 34486.4 hPa NE 10.3 km/h 41.4 km/h 43 % 0 mm
17:39 -19 °C -24.9 °C 34486.4 hPa ENE 41.7 km/h 59.5 km/h 44 % 0 mm
17:45 -19.1 °C -24.9 °C 34486.4 hPa ENE 38.8 km/h 51.8 km/h 44 % 0 mm
17:51 -19.1 °C -24.8 °C 34486.4 hPa NNE 23 km/h 44.1 km/h 45 % 0 mm
17:57 -19.1 °C -25 °C 34486.4 hPa NNE 41.7 km/h 57 km/h 44 % 0 mm
18:03 -19.2 °C -24.9 °C 34486.4 hPa NE 41.7 km/h 44.1 km/h 45 % 0 mm
18:09 -19.3 °C -25.2 °C 34486.4 hPa NE 20.9 km/h 59.5 km/h 44 % 0 mm
18:15 -19.3 °C -25.1 °C 34486.4 hPa North 12.7 km/h 31.1 km/h 45 % 0 mm
18:21 -19.3 °C -25.2 °C 34486.4 hPa NNE 23 km/h 57 km/h 44 % 0 mm
18:27 -19.4 °C -25.3 °C 34486.4 hPa ENE 23 km/h 64.7 km/h 44 % 0 mm
18:33 -19.4 °C -25.3 °C 34486.4 hPa NE 36.5 km/h 67.3 km/h 44 % 0 mm
18:39 -19.5 °C -25.3 °C 34496.6 hPa NE 41.7 km/h 46.7 km/h 44 % 0 mm
18:45 -19.5 °C -25.3 °C 34496.6 hPa NNE 23 km/h 51.8 km/h 44 % 0 mm
18:51 -19.6 °C -25.3 °C 34496.6 hPa NNE 15.6 km/h 31.1 km/h 45 % 0 mm
18:57 -19.6 °C -25.3 °C 34496.6 hPa NE 31.4 km/h 38.8 km/h 45 % 0 mm
19:03 -19.6 °C -25.3 °C 34496.6 hPa NE 38.8 km/h 54.4 km/h 45 % 0 mm
19:09 -19.6 °C -25.3 °C 34496.6 hPa NE 23 km/h 49.2 km/h 45 % 0 mm
19:15 -19.6 °C -25.3 °C 34496.6 hPa NE 26.2 km/h 38.8 km/h 45 % 0 mm
19:21 -19.7 °C -25.3 °C 34496.6 hPa NNE 31.4 km/h 38.8 km/h 45 % 0 mm
19:27 -19.7 °C -25.3 °C 34496.6 hPa NNE 38.8 km/h 41.4 km/h 45 % 0 mm
19:33 -19.7 °C -25.2 °C 34496.6 hPa NNE 46.3 km/h 51.8 km/h 46 % 0 mm
19:39 -19.7 °C -25.2 °C 34496.6 hPa NNE 36.5 km/h 44.1 km/h 46 % 0 mm
19:45 -19.7 °C -25.3 °C 34496.6 hPa NNE 38.8 km/h 51.8 km/h 46 % 0 mm
19:51 -19.8 °C -25.3 °C 34496.6 hPa ENE 17.9 km/h 41.4 km/h 46 % 0 mm
19:57 -19.8 °C -25.3 °C 34496.6 hPa NNE 28.5 km/h 41.4 km/h 46 % 0 mm
20:03 -19.8 °C -25.3 °C 34496.6 hPa NNE 28.5 km/h 49.2 km/h 46 % 0 mm
20:09 -19.8 °C -25.2 °C 34496.6 hPa NNE 15.6 km/h 33.6 km/h 47 % 0 mm
20:15 -19.9 °C -25.1 °C 34496.6 hPa NE 23 km/h 31.1 km/h 48 % 0 mm
20:21 -19.9 °C -25.3 °C 34496.6 hPa NNW 7.6 km/h 31.1 km/h 47 % 0 mm
20:27 -19.9 °C -25.1 °C 34496.6 hPa NNE 31.4 km/h 54.4 km/h 48 % 0 mm
20:33 -19.9 °C -25 °C 34496.6 hPa NNE 44.1 km/h 57 km/h 49 % 0 mm
20:39 -19.9 °C -25.3 °C 34496.6 hPa NE 36.5 km/h 59.5 km/h 47 % 0 mm
20:45 -20 °C -25.2 °C 34496.6 hPa NNE 33.6 km/h 51.8 km/h 48 % 0 mm
20:51 -20.1 °C -25.3 °C 34496.6 hPa NNE 33.6 km/h 69.8 km/h 48 % 0 mm
20:57 -20.1 °C -25.4 °C 34496.6 hPa NNE 44.1 km/h 64.7 km/h 47 % 0 mm
21:03 -20.1 °C -25.3 °C 34496.6 hPa NNE 41.7 km/h 64.7 km/h 48 % 0 mm
21:09 -20.1 °C -25.2 °C 34496.6 hPa NE 59.5 km/h 64.7 km/h 49 % 0 mm
21:15 -20.2 °C -25.2 °C 34496.6 hPa NNE 33.6 km/h 49.2 km/h 49 % 0 mm
21:21 -20.2 °C -25.1 °C 34496.6 hPa NE 15.6 km/h 57 km/h 50 % 0 mm
21:27 -20.2 °C -25.2 °C 34496.6 hPa ENE 41.7 km/h 41.7 km/h 50 % 0 mm
21:33 -20.3 °C -25.1 °C 34496.6 hPa East 17.9 km/h 41.4 km/h 51 % 0 mm
21:39 -20.3 °C -25.1 °C 34510.1 hPa North 28.5 km/h 41.4 km/h 51 % 0 mm
21:48 -20.3 °C -25.2 °C 34510.1 hPa North 23 km/h 46.7 km/h 50 % 0 mm
21:55 -20.3 °C -25.1 °C 34510.1 hPa NE 20.9 km/h 49.2 km/h 51 % 0 mm
22:01 -20.4 °C -25.1 °C 34510.1 hPa NE 17.9 km/h 38.8 km/h 52 % 0 mm
22:07 -20.4 °C -25.2 °C 34510.1 hPa NNE 38.8 km/h 46.7 km/h 51 % 0 mm
22:13 -20.4 °C -25.1 °C 34510.1 hPa North 17.9 km/h 38.8 km/h 52 % 0 mm
22:19 -20.4 °C -24.9 °C 34510.1 hPa NE 23 km/h 31.1 km/h 53 % 0 mm
22:25 -20.4 °C -24.9 °C 34510.1 hPa ENE 12.7 km/h 31.1 km/h 53 % 0 mm
22:31 -20.5 °C -25 °C 34510.1 hPa NE 15.6 km/h 33.6 km/h 53 % 0 mm
22:37 -20.5 °C -25 °C 34496.6 hPa NNE 20.9 km/h 41.4 km/h 53 % 0 mm
22:43 -20.5 °C -24.9 °C 34496.6 hPa NE 38.8 km/h 44.1 km/h 54 % 0 mm
22:49 -20.5 °C -24.9 °C 34496.6 hPa ENE 33.6 km/h 46.7 km/h 54 % 0 mm
22:55 -20.6 °C -24.9 °C 34496.6 hPa NNE 33.6 km/h 41.4 km/h 54 % 0 mm
23:01 -20.6 °C -24.8 °C 34496.6 hPa North 7.6 km/h 36.2 km/h 55 % 0 mm
23:07 -20.7 °C -24.8 °C 34496.6 hPa NE 17.9 km/h 38.8 km/h 56 % 0 mm
23:13 -20.7 °C -24.8 °C 34496.6 hPa NE 33.6 km/h 33.6 km/h 56 % 0 mm
23:19 -20.7 °C -24.8 °C 34496.6 hPa NNE 23 km/h 33.6 km/h 56 % 0 mm
23:25 -20.7 °C -24.8 °C 34496.6 hPa North 23 km/h 57 km/h 56 % 0 mm
23:31 -20.7 °C -24.8 °C 34496.6 hPa NE 31.4 km/h 44.1 km/h 56 % 0 mm
23:37 -20.7 °C -24.8 °C 34496.6 hPa NNE 36.5 km/h 51.8 km/h 56 % 0 mm
23:43 -20.8 °C -24.8 °C 34496.6 hPa NNE 31.4 km/h 46.7 km/h 57 % 0 mm
23:49 -20.8 °C -24.8 °C 34496.6 hPa NE 23 km/h 44.1 km/h 57 % 0 mm
23:55 -20.8 °C -24.7 °C 34496.6 hPa NNE 10.3 km/h 38.8 km/h 58 % 0 mm
Meteo18
Compliments of Weather Underground - 4 mb

Script developed by  Jim McMurry - jmcmurry@mwt.net Adapted for the template by  Wim van der Kuil - Leuven-Template.eu

You find our weather info also at:

European Weather Network

Weather Underground

Equipment we use:

Weather-station
Davis Vue

Weather-program
Meteobridge

Weather-server
Raspberry PI 2 B+

Provider
1 and 1

Davis Vue

Meteobridge

Raspberry PI 2 B+

1 and 1